Location: Anuling
(14.1239°N, 120.8922°E)
Time: 13:37:30
(UTC+00:00)

Cosmos 2218 Rocket - Pass Details

Date: 18 April 2026
Orbit: 955 x 1005 km, 82.9° (Epoch: 11 May)

Event Time Altitude Azimuth Distance (km) Brightness Sun altitude
Rises 10:45:54 0° 155° (SSE) 3,640 6.6 -9.2°
Reaches altitude 10° 10:48:54 10° 141° (SE) 2,688 5.8 -9.9°
Maximum altitude 10:53:39 24° 90° (E) 1,873 4.9 -11.0°
Drops below altitude 10° 10:58:23 10° 39° (NE) 2,679 6.1 -12.2°
Sets 11:01:21 0° 26° (NNE) 3,624 6.9 -12.9°
